Regional Weather Roundup
Issued by NWS

Home | Current Version | Previous Version | Text Only | Print | Product List | Glossary On
Versions: 1 2 3 4 5 6 7 8 9 10 11 12 13 14 15 16 17 18 19 20 21 22 23 24 25 26 27 28 29 30 31 32 33 34 35 36 37 38 39 40 41 42 43 44 45 46 47 48 49 50
461
ASUS43 KDTX 241210
RWRMI
MICHIGAN HOURLY REGIONAL WEATHER ROUNDUP
NATIONAL WEATHER SERVICE DETROIT/PONTIAC MI
800 AM EDT SUN SEP 24 2017

NOTE: "FAIR" INDICATES FEW OR NO CLOUDS BELOW 12,000 FEET WITH NO
SIGNIFICANT WEATHER AND/OR OBSTRUCTION TO VISIBILITY.

MIZ047>049-052>055-059>063-066>070-074>076-081>083-241300-
SOUTHEAST LOWER MICHIGAN

CITY           SKY/WX    TMP DP  RH WIND       PRES   REMARKS
ADRIAN         CLEAR     59  57  93 NE3       30.17R
6HR MIN TEMP:  58; 6HR MAX TEMP:  63;

ALMA           CLEAR     57  55  95 CALM      30.16S FOG
ANN ARBOR      CLEAR     57  57 100 CALM      30.16S
BAD AXE        PTCLDY    61  59  94 CALM      30.17R FOG
CARO             N/A     59  58  94 CALM      30.16R FOG
DETROIT CITY   CLEAR     66  63  90 CALM      30.17R
6HR MIN TEMP:  65; 6HR MAX TEMP:  71;

DETROIT        PTCLDY    66  63  90 CALM      30.17R FOG
FLINT          CLEAR     60  58  92 SE3       30.16R
6HR MIN TEMP:  60; 6HR MAX TEMP:  65;

GROSSE ILE     CLEAR     65  61  87 CALM      30.16R
6HR MIN TEMP:  63; 6HR MAX TEMP:  67;

HILLSDALE      PTCLDY    61  55  82 CALM      30.17R
HOWELL         CLEAR     62  59  91 CALM      30.17R
6HR MIN TEMP:  61; 6HR MAX TEMP:  66;


CITY           SKY/WX    TMP DP  RH WIND       PRES   REMARKS
JACKSON        CLEAR     62  58  86 CALM      30.16S
6HR MIN TEMP:  61; 6HR MAX TEMP:  69;

LAMBERTVILLE   CLEAR     62  59  91 CALM      30.16R FOG
6HR MIN TEMP:  61; 6HR MAX TEMP:  66;

LANSING        CLEAR     63  56  78 CALM      30.16R
6HR MIN TEMP:  62; 6HR MAX TEMP:  70;

LAPEER         FAIR      60  59  97 CALM      30.18R FOG
6HR MIN TEMP:  59; 6HR MAX TEMP:  64;

MASON          CLEAR     62  57  82 CALM      30.16S
MONROE         CLEAR     62  60  94 CALM      30.16R FOG
6HR MIN TEMP:  61; 6HR MAX TEMP:  66;

MT. CLEMENS    PTCLDY    63  63 100 CALM      30.15R
6HR MIN TEMP:  61; 6HR MAX TEMP:  67;

PONTIAC        PTCLDY    64  63  96 CALM      30.17R
6HR MIN TEMP:  63; 6HR MAX TEMP:  68;

PORT HOPE        N/A     68  64  87 CALM      30.15R
6HR MIN TEMP:  67; 6HR MAX TEMP:  74;

PORT HURON     FOG       61  59  94 CALM      30.17R VSB 1/4
TRI CITIES     CLEAR     64  62  93 CALM      30.16S
6HR MIN TEMP:  64; 6HR MAX TEMP:  72;

MIDLAND        FAIR      59  59 100 CALM      30.15R FOG
6HR MIN TEMP:  58; 6HR MAX TEMP:  69;

TROY           CLEAR     66  61  84 CALM      30.19R
SAGINAW HB     CLEAR     61  57  88 CALM      30.15S
$$
MIZ043>046-050>051-056>058-064>065-071>073-077>080-241300-
SOUTHWEST LOWER MICHIGAN

CITY           SKY/WX    TMP DP  RH WIND       PRES   REMARKS
BATTLE CREEK   CLEAR     63  60  90 CALM      30.16R
6HR MIN TEMP:  61; 6HR MAX TEMP:  69;

BENTON HARBOR  CLEAR     66  60  81 E5        30.11S
6HR MIN TEMP:  63; 6HR MAX TEMP:  69;

BIG RAPIDS     FOG       58  56  94 CALM      30.15R VSB 1/2
6HR MIN TEMP:  58; 6HR MAX TEMP:  64;

COLDWATER      CLEAR     61  61 100 CALM      30.16S
6HR MIN TEMP:  60; 6HR MAX TEMP:  67;

FREMONT        FAIR      65  62  91 CALM      30.13R
HOLLAND        CLEAR     63  59  87 SE3       30.13R
6HR MIN TEMP:  61; 6HR MAX TEMP:  66;

GRAND RAPIDS   PTCLDY    64  60  87 E3        30.14R
6HR MIN TEMP:  62; 6HR MAX TEMP:  68;

IONIA          FAIR      59  56  90 SE3       30.14S
6HR MIN TEMP:  59; 6HR MAX TEMP:  67;

KALAMAZOO      CLEAR     62  58  86 CALM      30.15S
6HR MIN TEMP:  62; 6HR MAX TEMP:  68;

LUDINGTON      CLEAR     63  61  94 CALM      30.11R
6HR MIN TEMP:  60; 6HR MAX TEMP:  65;

MARSHALL       CLEAR     59  59  99 CALM      30.16R
6HR MIN TEMP:  59; 6HR MAX TEMP:  64;

MUSKEGON       CLEAR     66  61  84 SE3       30.12S
6HR MIN TEMP:  64; 6HR MAX TEMP:  69;

SOUTH HAVEN    CLEAR     67  61  81 CALM      30.12S
$$
MIZ016>042-241300-
NORTHERN LOWER MICHIGAN

CITY           SKY/WX    TMP DP  RH WIND       PRES   REMARKS
ALPENA         CLEAR     64  62  93 CALM      30.14R
6HR MIN TEMP:  62; 6HR MAX TEMP:  68;

BELLAIRE       FOG       59  58  96 CALM      30.12S VSB 1
6HR MIN TEMP:  59; 6HR MAX TEMP:  64;

CADILLAC       CLEAR     60  55  83 CALM      30.15S HAZE
CHARLEVOIX     CLEAR     67  67 100 SE5       30.14R
FRANKFORT      CLEAR     64  64  97 CALM      30.11R
GAYLORD        CLEAR     61  56  83 CALM      30.16R
6HR MIN TEMP:  59; 6HR MAX TEMP:  67;

GRAYLING       CLEAR     57  53  86 CALM      30.16S
6HR MIN TEMP:  54; 6HR MAX TEMP:  62;

HARBOR SPRINGS CLEAR     65  64  95 N3        30.11S
HOUGHTON LAKE  CLEAR     60  58  92 S6        30.17R
6HR MIN TEMP:  58; 6HR MAX TEMP:  74;

MANISTEE       CLEAR     62  61  96 NE6       30.11R
OSCODA         CLEAR     65  60  82 CALM      30.14R
6HR MIN TEMP:  65; 6HR MAX TEMP:  72;

PELLSTON       CLEAR     58  57  97 CALM      30.12R FOG
6HR MIN TEMP:  56; 6HR MAX TEMP:  62;

ROGERS CITY    CLEAR     70  65  83 SW3       30.13S
TRAVERSE CITY  PTCLDY    68  63  84 CALM      30.10R
6HR MIN TEMP:  66; 6HR MAX TEMP:  69;

$$
MIZ007>008-015-241300-
EASTERN UPPER MICHIGAN

CITY           SKY/WX    TMP DP  RH WIND       PRES   REMARKS
KINROSS        CLEAR     63  63 100 NE3       30.12R
6HR MIN TEMP:  63; 6HR MAX TEMP:  69;

MACKINAC ISLAN CLEAR     68  67  95 S7        30.11R
6HR MIN TEMP:  67; 6HR MAX TEMP:  69;

NEWBERRY       CLEAR     67  66  97 S8        30.10R
6HR MIN TEMP:  64; 6HR MAX TEMP:  69;

S. S. MARIE    CLEAR     65  63  93 CALM      30.10S FOG
6HR MIN TEMP:  64; 6HR MAX TEMP:  67;

MUNISING         N/A     71  67  87 S8        30.05S
6HR MIN TEMP:  70; 6HR MAX TEMP:  73;

$$
MIZ004>006-011>014-085-241300-
CENTRAL UPPER MICHIGAN

CITY           SKY/WX    TMP DP  RH WIND       PRES   REMARKS
MANISTIQUE     CLEAR     65  59  82 SE6       30.08S HAZE
6HR MIN TEMP:  61; 6HR MAX TEMP:  66;

ESCANABA       FOG       61  61 100 CALM      30.07S VSB 1
6HR MIN TEMP:  59; 6HR MAX TEMP:  67;

MENOMINEE      FOG       64  63  96 CALM      30.08R VSB 1/4
6HR MIN TEMP:  63; 6HR MAX TEMP:  73;

SAWYER-GWINN   CLEAR     64  63  94 S3        30.08S FOG
$$
MIZ001>003-009>011-084-241300-
WESTERN UPPER MICHIGAN

CITY           SKY/WX    TMP DP  RH WIND       PRES   REMARKS
IRON MOUNTAIN  CLEAR     66  62  87 CALM      30.07R FOG
6HR MIN TEMP:  63; 6HR MAX TEMP:  72;

HOUGHTON       PTCLDY    67  64  90 S5        30.01R
6HR MIN TEMP:  66; 6HR MAX TEMP:  69; 6HR PCP:  0.01;

COPPER HARBOR    N/A     72  66  81 W7        29.98S
6HR MIN TEMP:  65; 6HR MAX TEMP:  72; 6HR PCP:  0.01;

IRONWOOD       CLEAR     72  63  73 S12G20    30.01S
6HR MIN TEMP:  71; 6HR MAX TEMP:  75;

$$

ABBREVIATIONS USED IN REMARKS
   TC - TEMPERATURE IN CELSIUS
  WCI - WIND CHILL INDEX
   HX - HEAT INDEX
  VSB - VISIBILITY





USA.gov is the U.S. government's official web portal to all federal, state and local government web resources and services.